Terminal Aerodrome Forecast
Issued by NWS Boston, MA

Home | Current Version | Previous Version | Text Only | Print | Product List | Glossary On
Versions: 1 2 3 4 5 6 7 8 9 10 11 12 13 14 15 16 17 18 19 20 21 22 23 24 25 26 27 28 29 30 31 32 33 34 35 36 37 38 39 40 41 42 43 44 45 46
865
FTUS41 KBOX 171122
TAFBOS
TAF
KBOS 171122Z 1712/1818 28005KT P6SM SCT200
     FM171900 11010KT P6SM OVC050
     FM172300 11010KT 6SM -RA OVC050
     FM180200 12012G19KT 3SM -RA OVC015
     FM181100 08018G26KT 4SM -RA OVC008
     FM181300 08018G26KT 4SM -RADZ OVC008=

USA.gov is the U.S. government's official web portal to all federal, state and local government web resources and services.